Flag for Norway Weather past 2 weeks in Hammerfest, Norway

Now
48 °F

Drizzle. Fog.


Feels Like: 45 °F
Forecast: 46 / 54 °F
Wind: 8 mph from North

Location: Hammerfest

Current Time: Aug 28, 2014 at 9:57:57 AM

Latest Report: Aug 28, 2014 at 8:50 AM


Visibility: 3 mi

Pressure: 30.04 "Hg

Humidity: 94%

Dew point: 46 °F

Location of HammerfestLocation

Historic Weather in Hammerfest — Graph

°F

Hammerfest temperature yesterday

Maximum temperature yesterday: 50 °F (at 1:50 PM)
Minimum temperature yesterday: 46 °F (at 2:50 AM)
Average temperature yesterday: 48 °F

Past Weeks' High & Low Weather Summary

 TemperatureHumidityPressure
High61 °F (Aug 25, 1:50 PM)100% (Aug 13, 3:50 PM)30.04 "Hg (Aug 13, 3:50 PM)
Low39 °F (Aug 22, 2:50 AM)52% (Aug 25, 1:50 PM)29.18 "Hg (Aug 13, 10:50 AM)
Average48 °F86%29.68 "Hg
* Reported Aug 13 8:50 AM — Aug 28 8:50 AM, Hammerfest, Weather by CustomWeather, © 2014

Note: Actual official high and low records may vary slightly from our data, if they occured in-between our weather recording intervals... More about our weather records

Advertising

Hammerfest weather history for previous 24 hours

 ConditionsComfort  
Time TempWeatherWind HumidityBarometerVisibility
8:50 AM
Aug 28
48 °FDrizzle. Fog.8 mph94%30.04 "Hg3 mi
7:50 AM48 °FDrizzle. Fog.8 mph100%30.04 "Hg2 mi
6:50 AM48 °FMostly cloudy.10 mph100%30.01 "HgN/A
5:50 AM48 °FFog.8 mph100%30.01 "Hg3 mi
4:50 AM48 °FFog.12 mph100%30.01 "Hg2 mi
3:50 AM48 °FFog.7 mph100%30.01 "Hg3 mi
2:50 AM48 °FFog.5 mph100%29.98 "Hg3 mi
1:50 AM48 °FDrizzle. Mostly cloudy.5 mph100%29.98 "Hg1 mi
12:50 AM48 °FLow clouds.5 mph100%29.98 "Hg2 mi
11:50 PM
Aug 27
48 °FFog.6 mph100%29.95 "Hg0 mi
10:50 PM48 °FDrizzle. Fog.5 mph100%29.95 "Hg1 mi
9:50 PM48 °FFog.8 mph100%29.95 "Hg0 mi
8:50 PM48 °FFog.8 mph100%29.95 "Hg0 mi
7:50 PM48 °FFog.10 mph100%29.92 "Hg1 mi
6:50 PM48 °FFog.7 mph100%29.92 "Hg0 mi
5:50 PM48 °FFog.3 mph100%29.92 "Hg0 mi
4:50 PM48 °FFog.9 mph100%29.89 "Hg1 mi
3:50 PM48 °FFog.2 mph100%29.89 "Hg2 mi
2:50 PM50 °FSnow. Fog.2 mph100%29.89 "Hg2 mi
1:50 PM50 °FFog.5 mph100%29.89 "Hg1 mi
12:50 PM48 °FFog.3 mph100%29.86 "Hg1 mi
11:50 AM48 °FFog.2 mph100%29.86 "Hg0 mi
10:50 AM48 °FFog.7 mph100%29.86 "Hg1 mi
9:50 AM48 °FFog.5 mph100%29.86 "Hg1 mi
Weather by CustomWeather, © 2014

See weather overviewHow to use our weather pages